Home   Weather   Wolverhampton   Past weeks

Flag for United Kingdom Past Weather in Wolverhampton, England, United Kingdom — Yesterday and Last 2 Weeks

Now
57 °F

Passing clouds.


Feels Like: 55 °F
Forecast: 52 / 62 °F
Wind: 10 mph from West

Location: Birmingham / Airport

Current Time: Aug 18, 2017 at 8:09:24 am

Latest Report: Aug 18, 2017 at 7:50 am


Visibility: N/A

Pressure: 29.77 "Hg

Humidity: 77%

Dew Point: 50 °F

Location of WolverhamptonLocation

Past Weather in Wolverhampton — Graph

°F

Wolverhampton Temperature Yesterday

Maximum temperature yesterday: 72 °F (at 2:50 pm)
Minimum temperature yesterday: 57 °F (at 12:50 am)
Average temperature yesterday: 64 °F

High & Low Weather Summary for the Past Weeks

 TemperatureHumidityPressure
High72 °F (Aug 4, 4:50 pm)100% (Aug 6, 3:50 am)30.27 "Hg (Aug 6, 3:50 am)
Low46 °F (Aug 6, 3:50 am)38% (Aug 4, 4:50 pm)29.56 "Hg (Aug 3, 7:20 am)
Average60 °F75%29.99 "Hg
* Reported Aug 3 6:20 am — Aug 18 6:50 am, Wolverhampton. Weather by CustomWeather, © 2017

Note: Actual official high and low records may vary slightly from our data, if they occured in-between our weather recording intervals... More about our weather records

Advertising

Wolverhampton Weather History for the Previous 24 Hours

Scroll right to see more
 ConditionsComfort  
Time TempWeatherWind HumidityBarometerVisibility
6:50 am
Fri, Aug 18
57 °FPassing clouds.7 mph88%29.77 "HgN/A
6:20 am57 °FScattered showers. Scattered clouds.8 mph88%29.74 "HgN/A
5:50 am57 °FPassing clouds.8 mph88%29.74 "HgN/A
5:20 am57 °FPartly cloudy.7 mph94%29.74 "HgN/A
4:50 am57 °FPassing clouds.7 mph88%29.74 "HgN/A
4:20 am57 °FPassing clouds.8 mph88%29.74 "HgN/A
3:20 am59 °FClear.10 mph88%29.74 "Hg10 mi
2:50 am59 °FPassing clouds.9 mph88%29.74 "HgN/A
2:20 am59 °FClear.7 mph88%29.77 "Hg10 mi
1:50 am59 °FClear.7 mph88%29.77 "Hg10 mi
1:20 am59 °FClear.8 mph88%29.77 "Hg10 mi
12:50 am59 °FPassing clouds.6 mph88%29.80 "HgN/A
11:50 pm
Thu, Aug 17
59 °FPassing clouds.7 mph88%29.80 "HgN/A
11:20 pm61 °FPassing clouds.7 mph83%29.80 "HgN/A
10:50 pm61 °FClear.9 mph83%29.80 "Hg10 mi
10:20 pm63 °FPassing clouds.7 mph77%29.80 "HgN/A
9:50 pm63 °FPassing clouds.8 mph73%29.80 "HgN/A
9:20 pm63 °FPassing clouds.7 mph73%29.80 "HgN/A
8:50 pm64 °FPassing clouds.5 mph68%29.80 "HgN/A
8:20 pm66 °FPassing clouds.5 mph64%29.80 "HgN/A
7:50 pm68 °FPassing clouds.8 mph56%29.80 "HgN/A
7:20 pm68 °FPassing clouds.8 mph60%29.80 "HgN/A
6:50 pm70 °FPassing clouds.8 mph57%29.80 "HgN/A
6:20 pm70 °FScattered clouds.10 mph57%29.80 "HgN/A
5:50 pm70 °FScattered clouds.13 mph53%29.80 "HgN/A
5:20 pm70 °FPassing clouds.12 mph53%29.80 "HgN/A
4:50 pm70 °FPassing clouds.12 mph53%29.83 "HgN/A
4:20 pm72 °FPassing clouds.13 mph47%29.83 "HgN/A
3:50 pm72 °FPassing clouds.15 mph44%29.83 "HgN/A
3:20 pm70 °FScattered clouds.10 mph57%29.80 "HgN/A
2:50 pm72 °FScattered clouds.13 mph53%29.80 "HgN/A
1:50 pm70 °FPassing clouds.13 mph57%29.80 "HgN/A
1:20 pm70 °FPassing clouds.14 mph57%29.80 "HgN/A
12:50 pm70 °FScattered clouds.13 mph69%29.80 "HgN/A
12:20 pm66 °FScattered clouds.10 mph78%29.80 "HgN/A
11:50 am66 °FScattered showers. Partly sunny.9 mph78%29.80 "HgN/A
11:20 am68 °FPartly sunny.13 mph78%29.77 "HgN/A
10:50 am66 °FScattered showers. Partly sunny.9 mph88%29.77 "HgN/A
10:20 am66 °FLight rain. Partly sunny.8 mph88%29.77 "HgN/A
9:50 am66 °FScattered showers. Broken clouds.10 mph88%29.77 "HgN/A
9:20 am66 °FBroken clouds.9 mph88%29.77 "HgN/A
8:50 am64 °FPartly sunny.10 mph94%29.77 "HgN/A
8:20 am64 °FPartly sunny.7 mph94%29.77 "HgN/A
Weather by CustomWeather, © 2017

See weather overviewHow to use our weather pages